Fosston, MN

1:02 AM CDT on July 24, 2017 (GMT -0500)
Fosston Municipal

Weather History for KFSE - October, 2012

Change the Weather History Date:

Sunday, October 7, 2012

  Actual Average Record
Temperature  
Mean Temperature 40 °F -  
Max Temperature 53 °F 56 °F 86 °F (2003)
Min Temperature 26 °F 35 °F 18 °F (1989)
Degree Days  
Heating Degree Days 26    
Moisture  
Dew Point 26 °F    
Average Humidity 66    
Maximum Humidity 93    
Minimum Humidity 38    
Precipitation  
Precipitation 0.00 in - - ()
Sea Level Pressure  
Sea Level Pressure 29.91 in    
Wind  
Wind Speed 12 mph (SSW)    
Max Wind Speed 18 mph    
Max Gust Speed 24 mph    
Visibility 10 miles    
Events      
Averages and records for this station are not official NWS values.
T = Trace of Precipitation, MM = Missing Value Source: NWS Daily Summary

Daily Weather History Graph

Daily Weather History Graph

Search for Another Location

Airport or City:

Trip Planner

Search our weather history database for the weather conditions in past years. The results will help you decide how hot, cold, wet, or windy it might be!

Date:

Astronomy

Oct. 07, 2012 Rise Set
Actual Time 7:31 AM CDT 6:49 PM CDT
Civil Twilight 7:00 AM CDT 7:20 PM CDT
Nautical Twilight 6:24 AM CDT 7:55 PM CDT
Astronomical Twilight 5:48 AM CDT 8:31 PM CDT
Moon 11:45 PM CDT (10/7) 2:26 PM CDT (10/7)
Length of Visible Light 12h 19m
Length of Day
11h 18m
Waning Gibbous, 56% of the Moon is Illuminated
Oct 7
Waning Gibbous
Oct 8
Last Quarter
Oct 15
New
Oct 21
First Quarter
Oct 29
Full

Hourly Weather History & Observations

Time (CDT) Temp. Windchill Dew Point Humidity Pressure Visibility Wind Dir Wind Speed Gust Speed Precip Events Conditions
12:09 AM 28.4 °F 18.0 °F 24.8 °F 86% 30.13 in 10.0 mi SSW 12.7 mph - N/A   Clear
12:35 AM 30.2 °F 20.8 °F 26.6 °F 86% 30.11 in 10.0 mi SSW 11.5 mph - N/A   Clear
12:55 AM 28.4 °F 18.5 °F 26.6 °F 93% 30.11 in 10.0 mi SSW 11.5 mph - N/A   Clear
1:15 AM 28.4 °F 18.5 °F 26.6 °F 93% 30.10 in 10.0 mi SSW 11.5 mph - N/A   Clear
1:35 AM 28.4 °F 18.5 °F 24.8 °F 86% 30.10 in 10.0 mi SSW 11.5 mph - N/A   Clear
2:15 AM 28.4 °F 18.5 °F 23.0 °F 80% 30.08 in 10.0 mi SSW 11.5 mph - N/A   Clear
2:35 AM 28.4 °F 19.1 °F 23.0 °F 80% 30.08 in 10.0 mi SSW 10.4 mph - N/A   Clear
2:55 AM 26.6 °F 16.2 °F 21.2 °F 80% 30.07 in 10.0 mi South 11.5 mph - N/A   Clear
3:15 AM 26.6 °F 16.8 °F 21.2 °F 80% 30.06 in 10.0 mi SSW 10.4 mph - N/A   Clear
3:36 AM 26.6 °F 16.2 °F 21.2 °F 80% 30.05 in 10.0 mi SSW 11.5 mph - N/A   Clear
3:55 AM 26.6 °F 16.8 °F 21.2 °F 80% 30.05 in 10.0 mi SSW 10.4 mph - N/A   Clear
4:15 AM 28.4 °F 18.5 °F 21.2 °F 74% 30.04 in 10.0 mi SSW 11.5 mph - N/A   Clear
4:35 AM 26.6 °F 16.8 °F 21.2 °F 80% 30.03 in 10.0 mi SSW 10.4 mph - N/A   Clear
4:55 AM 26.6 °F 16.2 °F 21.2 °F 80% 30.03 in 10.0 mi SSW 11.5 mph - N/A   Clear
5:15 AM 26.6 °F 16.8 °F 21.2 °F 80% 30.02 in 10.0 mi SSW 10.4 mph - N/A   Clear
5:35 AM 26.6 °F 16.8 °F 21.2 °F 80% 30.01 in 10.0 mi South 10.4 mph - N/A   Clear
5:55 AM 26.6 °F 16.8 °F 21.2 °F 80% 30.01 in 10.0 mi South 10.4 mph - N/A   Clear
6:15 AM 26.6 °F 16.8 °F 21.2 °F 80% 30.00 in 10.0 mi South 10.4 mph - N/A   Clear
6:35 AM 26.6 °F 17.5 °F 21.2 °F 80% 29.99 in 10.0 mi South 9.2 mph - N/A   Clear
6:55 AM 26.6 °F 16.2 °F 21.2 °F 80% 29.98 in 10.0 mi South 11.5 mph - N/A   Clear
7:15 AM 26.6 °F 16.2 °F 21.2 °F 80% 29.98 in 10.0 mi South 11.5 mph - N/A   Clear
7:35 AM 26.6 °F 15.7 °F 21.2 °F 80% 29.97 in 10.0 mi South 12.7 mph - N/A   Clear
7:55 AM 26.6 °F 16.2 °F 21.2 °F 80% 29.97 in 10.0 mi South 11.5 mph - N/A   Clear
8:15 AM 28.4 °F 18.0 °F 21.2 °F 74% 29.97 in 10.0 mi South 12.7 mph 18.4 mph N/A   Scattered Clouds
8:35 AM 28.4 °F 18.0 °F 23.0 °F 80% 29.96 in 10.0 mi South 12.7 mph - N/A   Mostly Cloudy
8:55 AM 28.4 °F 17.5 °F 23.0 °F 80% 29.96 in 10.0 mi South 13.8 mph - N/A   Scattered Clouds
9:15 AM 32.0 °F 21.6 °F 24.8 °F 75% 29.96 in 10.0 mi South 15.0 mph - N/A   Mostly Cloudy
9:35 AM 30.2 °F 19.8 °F 24.8 °F 80% 29.95 in 10.0 mi SSW 13.8 mph - N/A   Scattered Clouds
9:55 AM 32.0 °F 23.0 °F 24.8 °F 75% 29.95 in 10.0 mi South 11.5 mph - N/A   Clear
10:15 AM 33.8 °F 24.8 °F 26.6 °F 75% 29.95 in 10.0 mi South 12.7 mph - N/A   Clear
10:35 AM 33.8 °F 25.3 °F 26.6 °F 75% 29.95 in 10.0 mi South 11.5 mph - N/A   Clear
10:55 AM 37.4 °F 28.2 °F 26.6 °F 65% 29.94 in 10.0 mi SSW 16.1 mph - N/A   Clear
11:15 AM 37.4 °F 28.9 °F 26.6 °F 65% 29.94 in 10.0 mi SSW 13.8 mph - N/A   Clear
11:35 AM 39.2 °F 30.8 °F 26.6 °F 61% 29.93 in 10.0 mi South 15.0 mph - N/A   Clear
11:55 AM 41.0 °F 32.8 °F 26.6 °F 57% 29.92 in 10.0 mi SSW 16.1 mph - N/A   Clear
12:15 PM 42.8 °F 35.8 °F 28.4 °F 57% 29.91 in 10.0 mi SSW 13.8 mph - N/A   Clear
12:35 PM 44.6 °F 37.8 °F 28.4 °F 53% 29.91 in 10.0 mi SSW 15.0 mph 18.4 mph N/A   Clear
12:55 PM 46.4 °F 40.4 °F 28.4 °F 50% 29.90 in 10.0 mi SSW 13.8 mph 18.4 mph N/A   Clear
1:15 PM 48.2 °F - 30.2 °F 50% 29.89 in 10.0 mi SSW 16.1 mph - N/A   Clear
1:35 PM 48.2 °F - 32.0 °F 54% 29.88 in 10.0 mi SSW 18.4 mph - N/A   Clear
1:55 PM 50.0 °F - 28.4 °F 43% 29.87 in 10.0 mi SSW 16.1 mph 23.0 mph N/A   Clear
2:15 PM 51.8 °F - 26.6 °F 38% 29.86 in 10.0 mi SSW 18.4 mph - N/A   Clear
2:35 PM 51.8 °F - 32.0 °F 47% 29.86 in 10.0 mi SSW 18.4 mph 24.2 mph N/A   Clear
2:55 PM 51.8 °F - 28.4 °F 41% 29.85 in 10.0 mi SSW 13.8 mph - N/A   Scattered Clouds
3:15 PM 51.8 °F - 28.4 °F 41% 29.84 in 10.0 mi SSW 16.1 mph 21.9 mph N/A   Scattered Clouds
3:35 PM 51.8 °F - 30.2 °F 44% 29.84 in 10.0 mi SW 16.1 mph - N/A   Clear
3:56 PM 53.6 °F - 32.0 °F 44% 29.82 in 10.0 mi SW 11.5 mph 17.3 mph N/A   Clear
4:15 PM 53.6 °F - 33.8 °F 47% 29.82 in 10.0 mi SSW 11.5 mph 20.7 mph N/A   Clear
4:35 PM 53.6 °F - 28.4 °F 38% 29.82 in 10.0 mi SW 10.4 mph 18.4 mph N/A   Clear
4:55 PM 53.6 °F - 35.6 °F 51% 29.81 in 10.0 mi SW 11.5 mph 18.4 mph N/A   Clear
5:15 PM 53.6 °F - 35.6 °F 51% 29.81 in 10.0 mi SW 12.7 mph - N/A   Clear
5:35 PM 51.8 °F - 26.6 °F 38% 29.81 in 10.0 mi SW 9.2 mph - N/A   Clear
5:55 PM 48.2 °F - 37.4 °F 66% 29.80 in 10.0 mi SW 9.2 mph - N/A   Clear
6:15 PM 46.4 °F 42.9 °F 26.6 °F 46% 29.80 in 10.0 mi SSW 6.9 mph - N/A   Scattered Clouds
6:35 PM 44.6 °F 40.2 °F 26.6 °F 49% 29.80 in 10.0 mi South 8.1 mph - N/A   Overcast
6:56 PM 42.8 °F 39.3 °F 28.4 °F 57% 29.79 in 10.0 mi South 5.8 mph - N/A   Overcast
7:15 PM 42.8 °F 38.6 °F 28.4 °F 57% 29.79 in 10.0 mi South 6.9 mph - N/A   Overcast
7:55 PM 42.8 °F 39.3 °F 28.4 °F 57% 29.79 in 10.0 mi South 5.8 mph - N/A   Overcast
8:15 PM 42.8 °F 38.6 °F 28.4 °F 57% 29.78 in 10.0 mi South 6.9 mph - N/A   Unknown
8:35 PM 42.8 °F 38.0 °F 28.4 °F 57% 29.78 in 10.0 mi South 8.1 mph - N/A   Overcast
8:55 PM 42.8 °F 38.6 °F 28.4 °F 57% 29.77 in 10.0 mi South 6.9 mph - N/A   Overcast
9:15 PM 42.8 °F 37.5 °F 28.4 °F 57% 29.77 in 10.0 mi South 9.2 mph - N/A   Overcast
9:35 PM 42.8 °F 39.3 °F 28.4 °F 57% 29.77 in 10.0 mi SSW 5.8 mph - N/A   Overcast
9:55 PM 42.8 °F 39.3 °F 32.0 °F 66% 29.77 in 10.0 mi SSW 5.8 mph - N/A   Overcast
10:15 PM 42.8 °F 39.3 °F 28.4 °F 57% 29.76 in 10.0 mi SSW 5.8 mph - N/A   Overcast
10:35 PM 42.8 °F 39.3 °F 28.4 °F 57% 29.76 in 10.0 mi SSW 5.8 mph - N/A   Overcast
10:55 PM 41.0 °F 38.0 °F 28.4 °F 61% 29.75 in 10.0 mi South 4.6 mph - N/A   Overcast
11:15 PM 39.2 °F 35.9 °F 30.2 °F 70% 29.74 in 10.0 mi South 4.6 mph - N/A   Overcast
11:35 PM 39.2 °F 35.9 °F 30.2 °F 70% 29.74 in 10.0 mi South 4.6 mph - N/A   Overcast
11:55 PM 39.2 °F 35.0 °F 28.4 °F 65% 29.74 in 10.0 mi South 5.8 mph - N/A   Mostly Cloudy